Wind_Speed
33 35 35 34 33 30 28 27 25 23 21 20 18 17 16 15 13 12 10 8 8 6 5 4 3 3 3 3 4 4 4 6 7 7 7 7 6 6 5 5 4 4
36 37 35 34 32 30 27 26 24 22 21 20 19 17 16 15 13 12 10 8 7 6 4 3 2 2 2 2 2 3 4 6 6 6 6 5 5 4 4 4 3 3
38 38 36 34 32 30 28 26 24 23 22 20 19 17 16 15 13 12 11 9 7 5 4 3 3 2 0 1 2 3 4 6 6 6 5 4 4 3 3 3 3 3
40 38 35 33 31 29 28 27 26 24 22 21 20 18 17 15 14 12 11 9 7 6 5 5 4 2 1 1 2 3 4 5 5 5 4 4 3 3 2 3 3 3
40 38 35 33 31 30 29 27 26 24 23 21 20 19 17 16 14 12 11 10 9 8 7 6 5 4 3 2 3 4 5 5 5 4 4 3 3 3 3 3 4 4
40 38 36 34 32 30 29 27 25 24 23 22 21 20 18 17 15 13 12 11 11 10 9 8 7 5 4 3 3 4 5 5 5 4 4 3 3 4 4 4 5 5
41 39 36 34 33 31 28 27 26 24 23 22 21 20 19 17 15 14 14 13 12 11 10 10 8 7 5 5 4 4 4 5 6 5 5 4 4 5 5 5 6 6
42 39 37 35 33 32 29 28 26 25 24 23 22 21 19 17 16 16 16 15 13 13 12 11 10 8 7 6 5 4 5 5 6 6 5 5 5 6 6 7 7 8
42 40 38 36 35 33 31 29 28 26 26 24 23 22 20 19 18 18 17 16 15 15 14 12 11 9 8 7 5 4 5 6 6 6 6 6 6 7 7 8 8 9
43 41 39 38 36 34 32 30 29 28 27 25 24 23 21 21 20 20 18 17 17 16 15 13 12 10 10 8 6 4 5 6 7 7 7 7 7 7 8 9 9 10
44 42 41 40 38 36 33 32 31 30 28 27 26 24 23 23 22 21 20 19 18 17 16 14 13 12 11 9 6 5 6 7 7 8 8 8 8 8 9 9 10 11
45 44 43 41 39 37 35 34 32 31 30 28 27 26 25 25 23 22 20 20 20 19 17 15 14 14 13 10 7 6 7 7 8 8 8 8 8 9 9 10 11 12
47 46 44 42 39 37 36 35 34 32 31 29 28 27 27 26 24 22 21 21 21 20 18 17 16 16 14 11 8 7 7 8 9 9 9 9 9 9 10 11 12 13
47 46 44 42 40 38 37 36 35 34 32 31 30 29 29 27 24 23 23 23 22 21 19 18 18 17 15 12 10 8 9 9 10 10 10 10 10 10 11 12 13 14
48 46 45 43 42 40 39 38 36 35 34 32 32 31 29 27 26 25 24 24 24 22 21 21 20 19 16 13 11 10 10 10 11 11 11 11 11 11 12 13 14 15
48 47 46 45 43 42 41 39 38 37 35 34 33 32 31 29 28 27 26 26 25 24 23 23 21 20 17 15 13 12 12 12 12 12 13 13 13 13 13 14 15 16
49 49 47 46 44 43 42 41 39 38 37 36 35 33 32 31 29 29 28 27 26 25 25 24 22 20 18 16 15 15 15 14 14 14 14 14 14 14 14 15 16 17
51 50 48 47 46 44 43 42 40 40 39 38 37 35 34 32 31 30 30 28 27 27 27 26 24 22 20 18 18 17 17 17 16 16 16 16 16 16 15 15 16 17
51 51 49 48 47 45 44 43 42 41 40 39 38 36 35 34 32 32 31 29 29 29 29 27 25 23 22 20 20 20 19 19 18 18 19 19 18 18 17 17 17 17
51 51 49 48 47 45 44 44 43 42 42 40 39 37 36 36 34 33 32 31 31 31 30 29 26 25 23 22 22 22 21 21 21 20 21 21 21 20 19 19 19 19
51 50 49 48 47 46 45 44 44 43 42 40 39 39 38 37 35 34 33 33 33 32 32 30 28 27 25 24 24 23 23 24 23 23 23 23 23 22 22 21 21 21
49 49 49 48 47 46 46 45 44 43 42 41 41 41 40 38 36 36 35 34 34 34 33 32 30 28 27 27 26 25 26 26 26 26 26 26 25 24 24 24 24 23
48 48 48 48 48 47 46 45 44 43 42 42 43 42 40 39 38 38 37 36 35 35 35 34 32 30 30 29 28 27 28 28 28 28 29 28 27 26 27 27 26 25
46 47 47 47 47 46 45 44 43 43 43 43 43 43 41 40 39 39 38 37 37 37 36 35 34 32 32 31 31 30 30 30 31 31 31 31 29 29 29 29 28 27
44 45 45 45 45 44 43 43 43 43 43 43 43 42 41 40 40 40 39 38 38 39 38 37 36 35 34 34 34 33 33 33 34 34 34 34 32 31 31 31 30 30
39 41 42 42 42 41 41 42 43 43 43 42 42 42 41 41 41 41 41 40 40 41 40 39 39 38 37 37 37 36 36 36 37 38 38 36 34 33 33 33 33 33
Wind_Direction
191 187 185 182 181 182 180 178 179 178 175 172 170 167 164 163 159 154 153 147 139 134 123 108 93 81 66 52 41 27 15 4 359 352 347 347 344 342 341 333 332 331
190 188 186 184 183 183 180 179 180 179 177 173 172 172 169 168 165 160 159 155 151 150 142 135 129 114 74 44 25 7 2 357 352 347 345 346 339 337 335 327 326 317
191 190 188 187 185 183 180 179 180 180 179 176 175 177 174 173 172 168 165 164 165 171 175 177 175 166 100 7 351 348 352 349 346 342 338 335 330 328 319 306 303 289
192 192 191 189 187 186 183 183 183 182 182 181 179 179 179 178 178 176 173 175 182 191 195 194 196 205 237 286 317 333 340 340 338 333 327 321 312 308 293 275 272 264
194 193 192 190 189 188 188 188 188 186 185 186 185 183 184 185 184 182 183 188 194 200 204 203 208 217 231 264 299 317 327 332 330 320 312 303 288 286 272 256 257 256
195 195 193 192 191 191 192 192 192 191 189 190 190 188 189 189 189 189 192 199 203 206 209 211 214 219 231 256 283 304 317 324 319 307 297 286 272 264 257 253 257 260
197 197 195 194 193 194 196 195 194 194 193 193 193 192 193 192 194 196 200 206 208 210 214 215 218 223 234 249 268 292 310 315 308 296 285 274 260 251 249 253 259 263
198 198 197 195 195 196 197 197 197 196 196 196 196 196 197 198 200 203 207 211 212 215 218 219 222 228 236 246 258 281 302 305 296 286 278 266 255 250 249 252 260 267
200 200 199 198 198 199 199 199 200 199 199 200 199 199 200 201 206 210 213 215 216 219 222 222 225 229 237 246 252 274 296 297 287 278 273 265 257 256 255 257 264 271
201 202 201 201 201 201 202 202 202 203 203 202 202 204 205 207 210 213 216 218 220 223 224 225 227 231 240 246 247 268 289 288 281 275 269 265 261 261 263 266 269 274
203 204 204 204 204 204 204 205 205 206 206 205 205 207 210 212 215 217 219 221 224 226 226 226 228 234 243 246 246 265 282 280 276 273 269 266 264 266 269 272 273 276
205 206 206 207 206 206 207 207 208 209 209 208 209 211 214 217 219 221 222 224 226 227 226 227 231 239 244 245 248 263 275 275 272 271 269 266 267 270 272 275 277 279
208 208 209 209 209 209 210 210 211 212 212 212 213 215 218 220 221 222 224 226 228 228 227 229 235 241 244 243 248 262 272 273 271 271 271 269 270 273 275 278 280 282
210 211 211 211 211 211 212 213 214 215 215 215 217 218 221 223 224 224 225 228 229 227 228 231 237 242 243 242 249 263 271 272 271 271 271 271 271 273 276 279 282 283
213 213 213 213 213 213 214 215 216 217 217 218 219 221 223 224 224 225 227 229 230 228 229 233 238 242 242 244 251 263 271 273 272 271 272 272 271 272 275 278 282 283
215 215 215 215 215 215 216 217 217 218 219 220 221 223 225 226 225 225 227 229 231 231 233 236 239 242 243 246 253 263 270 272 272 273 273 273 272 272 275 278 281 283
217 217 217 217 217 217 218 219 219 220 221 222 223 224 226 227 226 228 229 230 231 233 236 239 241 243 245 247 254 262 268 271 273 275 275 275 274 274 277 280 282 284
220 219 219 219 219 220 220 220 221 222 223 224 225 227 228 229 229 230 231 231 233 236 238 240 242 244 246 250 255 261 266 268 272 276 278 277 276 277 279 281 283 285
222 222 221 221 222 222 222 221 222 224 225 226 227 229 231 232 232 232 232 233 237 239 240 241 242 244 247 251 256 261 264 266 270 276 279 278 278 280 282 283 284 285
224 223 223 224 224 224 223 223 225 226 228 228 230 231 234 234 234 234 235 238 240 241 241 242 243 245 248 252 257 261 264 266 269 273 277 278 279 281 282 284 285 285
225 225 226 226 226 225 225 226 227 229 230 231 233 236 237 237 237 237 239 241 242 242 243 243 244 246 249 252 257 262 264 267 269 272 275 276 276 279 282 284 284 285
227 227 228 228 228 227 227 228 229 231 232 234 237 238 238 237 238 240 242 242 242 243 244 245 245 246 250 254 258 261 264 268 272 274 274 274 274 277 280 281 282 283
231 231 231 230 230 230 230 232 233 234 236 238 239 239 239 239 241 243 243 243 244 246 247 248 248 248 251 255 258 261 264 268 273 275 275 274 274 276 278 279 280 281
236 235 234 233 233 234 235 237 237 238 239 241 242 243 243 245 245 245 245 246 247 249 249 250 251 251 253 256 259 261 264 268 272 274 274 274 275 276 278 278 278 279
241 240 239 238 239 240 241 241 242 243 244 245 246 247 247 247 247 247 248 249 251 252 251 252 253 253 253 256 259 260 263 268 271 272 272 274 276 277 277 277 277 278
246 245 244 243 244 245 245 246 247 247 248 249 249 249 249 249 249 250 251 252 253 253 253 254 255 255 255 257 259 261 263 267 270 271 272 274 276 276 276 275 276 276
Height
1548 1550 1551 1553 1555 1557 1558 1560 1562 1563 1564 1566 1567 1568 1570 1571 1572 1573 1574 1575 1576 1577 1577 1578 1578 1579 1579 1579 1579 1579 1579 1579 1578 1578 1578 1578 1578 1578 1577 1577 1576 1576
1547 1549 1550 1552 1553 1555 1557 1559 1560 1562 1563 1564 1566 1567 1568 1569 1571 1572 1573 1574 1575 1576 1576 1577 1577 1578 1578 1578 1578 1578 1577 1577 1577 1577 1577 1577 1577 1576 1576 1575 1575 1574
1546 1547 1549 1550 1552 1554 1555 1557 1559 1560 1561 1563 1564 1565 1567 1568 1569 1570 1571 1573 1574 1575 1575 1576 1577 1577 1577 1577 1577 1576 1576 1575 1576 1576 1576 1576 1575 1575 1575 1574 1574 1573
1544 1546 1548 1550 1551 1553 1554 1555 1557 1558 1560 1561 1562 1564 1565 1566 1567 1568 1570 1571 1572 1574 1575 1575 1575 1575 1575 1575 1575 1574 1574 1574 1574 1574 1574 1574 1574 1574 1573 1573 1572 1571
1543 1545 1547 1549 1550 1551 1552 1554 1555 1556 1558 1560 1561 1562 1563 1565 1566 1566 1568 1569 1571 1572 1573 1574 1574 1573 1573 1573 1573 1572 1572 1572 1573 1573 1573 1573 1572 1572 1572 1571 1570 1570
1542 1544 1545 1547 1548 1550 1551 1552 1554 1555 1556 1558 1559 1561 1562 1563 1564 1565 1566 1568 1569 1571 1572 1572 1572 1572 1572 1571 1571 1571 1570 1571 1571 1571 1571 1571 1571 1570 1570 1569 1568 1568
1540 1542 1544 1545 1547 1548 1550 1551 1552 1553 1555 1556 1558 1559 1560 1561 1562 1563 1564 1566 1568 1569 1570 1570 1570 1570 1570 1570 1569 1569 1569 1569 1569 1569 1569 1569 1569 1568 1568 1567 1566 1566
1538 1540 1542 1543 1545 1546 1548 1549 1550 1552 1553 1554 1556 1557 1559 1559 1560 1561 1563 1564 1566 1567 1568 1568 1568 1568 1568 1567 1567 1567 1566 1567 1567 1567 1567 1567 1566 1566 1566 1565 1565 1564
1536 1538 1539 1541 1542 1543 1545 1547 1548 1550 1551 1553 1554 1556 1556 1557 1558 1560 1561 1562 1564 1565 1566 1566 1566 1566 1566 1566 1565 1564 1564 1565 1565 1565 1565 1565 1564 1564 1564 1563 1563 1562
1533 1535 1537 1538 1539 1541 1542 1544 1546 1547 1549 1551 1552 1553 1554 1555 1556 1557 1559 1560 1562 1563 1563 1564 1564 1564 1564 1564 1563 1562 1562 1562 1563 1563 1563 1563 1562 1562 1562 1561 1561 1560
1530 1532 1533 1534 1536 1538 1539 1541 1543 1545 1547 1548 1549 1551 1552 1552 1553 1554 1556 1558 1559 1560 1561 1561 1561 1562 1562 1562 1561 1560 1560 1560 1561 1561 1561 1561 1560 1560 1560 1559 1559 1558
1526 1528 1529 1531 1533 1535 1537 1539 1540 1542 1544 1545 1547 1548 1549 1549 1550 1551 1553 1555 1557 1558 1558 1559 1559 1559 1560 1560 1559 1558 1558 1558 1559 1559 1559 1559 1558 1558 1558 1557 1557 1556
1522 1524 1526 1529 1531 1532 1534 1536 1538 1540 1541 1543 1544 1545 1546 1547 1547 1549 1551 1553 1554 1555 1556 1557 1557 1557 1557 1557 1557 1556 1556 1556 1556 1557 1557 1556 1556 1556 1555 1555 1555 1554
1519 1522 1524 1527 1528 1530 1532 1533 1535 1537 1539 1540 1542 1543 1544 1544 1545 1546 1548 1550 1552 1553 1554 1554 1554 1554 1554 1554 1554 1554 1554 1554 1554 1554 1554 1554 1554 1553 1553 1553 1552 1552
1516 1519 1521 1524 1525 1527 1529 1530 1532 1534 1536 1537 1539 1540 1541 1542 1543 1544 1545 1547 1549 1550 1551 1552 1552 1552 1552 1552 1552 1551 1551 1551 1552 1552 1552 1551 1551 1551 1551 1550 1550 1549
1514 1516 1518 1520 1522 1524 1525 1527 1529 1531 1533 1534 1536 1537 1538 1539 1540 1540 1542 1544 1546 1547 1548 1549 1549 1549 1549 1549 1549 1549 1549 1549 1549 1549 1549 1549 1549 1548 1548 1547 1547 1547
1510 1512 1514 1517 1518 1521 1522 1524 1526 1528 1529 1531 1533 1534 1535 1535 1537 1538 1539 1541 1543 1544 1546 1546 1546 1546 1546 1546 1546 1546 1546 1546 1546 1546 1546 1546 1546 1545 1545 1545 1544 1544
1507 1508 1511 1513 1515 1517 1519 1521 1523 1525 1526 1528 1529 1530 1531 1532 1534 1535 1536 1539 1540 1542 1543 1543 1544 1543 1543 1543 1543 1543 1543 1543 1544 1544 1543 1543 1543 1542 1542 1542 1541 1541
1503 1505 1508 1510 1512 1515 1517 1518 1520 1521 1523 1524 1525 1527 1528 1529 1531 1532 1534 1536 1537 1538 1539 1540 1540 1540 1540 1540 1540 1540 1540 1540 1540 1540 1540 1540 1540 1539 1539 1538 1538 1538
1500 1502 1505 1508 1510 1512 1513 1515 1516 1518 1520 1521 1523 1524 1525 1526 1528 1529 1531 1532 1533 1535 1536 1537 1537 1537 1537 1537 1537 1537 1537 1537 1537 1537 1537 1537 1536 1536 1536 1535 1535 1535
1496 1499 1502 1505 1507 1509 1510 1511 1513 1515 1517 1519 1520 1521 1522 1523 1525 1526 1527 1529 1530 1531 1532 1533 1533 1533 1533 1534 1534 1534 1534 1533 1534 1533 1533 1533 1533 1533 1532 1532 1531 1531
1494 1497 1500 1502 1504 1505 1507 1508 1510 1512 1514 1516 1517 1518 1519 1520 1522 1523 1524 1525 1526 1527 1528 1529 1530 1530 1530 1530 1530 1530 1530 1529 1529 1530 1529 1529 1529 1529 1529 1528 1528 1527
1492 1494 1496 1498 1500 1502 1503 1506 1508 1510 1511 1512 1513 1514 1516 1517 1518 1519 1520 1522 1523 1523 1524 1525 1526 1527 1527 1527 1527 1527 1526 1526 1525 1525 1525 1525 1525 1525 1525 1524 1524 1524
1489 1491 1493 1495 1497 1499 1501 1504 1505 1507 1508 1509 1510 1511 1513 1514 1515 1516 1517 1518 1519 1520 1520 1521 1523 1523 1523 1523 1523 1523 1522 1522 1522 1521 1521 1521 1521 1521 1520 1520 1520 1520
1487 1489 1491 1493 1495 1497 1499 1501 1502 1504 1505 1506 1508 1509 1510 1511 1512 1513 1514 1515 1515 1516 1517 1518 1519 1520 1520 1519 1519 1519 1518 1518 1518 1517 1516 1516 1516 1516 1516 1515 1515 1515
1485 1487 1489 1491 1493 1495 1497 1499 1500 1501 1502 1504 1505 1506 1507 1508 1509 1510 1510 1511 1512 1512 1513 1514 1514 1515 1516 1515 1515 1515 1514 1514 1513 1512 1511 1512 1512 1511 1511 1511 1511 1510